www.pogodaiklimat.ru

Погода и климат >> Архив погоды >> Россия >> Краснодарский край >> Армавир


АРХИВ ПОГОДЫ в Армавире

Время (UTC), дата Ветер
(напр.,м/с)
 
Видим.   Явления Облачность Т
(С)
Тd
(С)
f
(%)
Тe
(С)
Тes
(С)
Комфортность P
(гПа)
Po
(гПа)
Тmin
(С)
Tmax
(С)
R
(мм)
R24
(мм)
S
(см)
21 16.05 В 1 10 км ясно +19.9 +13.9 68 +23 +23 комфорт 1011.9 993.4
00 17.05 Ю 1 10 км ясно +17.5 +13.7 78 +19 +19 тепло 1011.0 992.4
03 17.05 В 1 10 км 4/0
[Ci fib]
+18.4 +14.1 76 +20 +21 тепло 1011.4 992.9 +16.6
06 17.05 В 3 10 км 10/0
[Ci]
+26.6 +10.4 36 +27 +34 жарко 1010.8 992.8
09 17.05 В 3 10 км 10/0
[Ci]
+29.7 +10.9 31 +30 +42 жарко 1010.5 992.7
12 17.05 В 3 10 км 10/0
[Ci]
+30.7 +8.0 24 +30 +38 жарко 1009.6 991.9
15 17.05 В 3 10 км 10/0
[Ci]
+29.3 +10.0 30 +29 +31 жарко 1008.9 991.0 +31.0
18 17.05 В 2 10 км 3/0
[Ci fib]
+23.3 +10.9 46 +26 +26 жарко 1009.2 991.0
21 17.05 штиль 0 10 км ясно +18.3 +12.1 67 +19 +19 тепло 1008.9 990.4
00 18.05 СЗ 1 10 км 3/0
[Ci fib]
+18.2 +12.1 68 +20 +20 тепло 1008.8 990.3
03 18.05 ЮВ 1 10 км 4/0
[Ci fib]
+18.7 +11.1 61 +20 +21 тепло 1008.0 989.6 +15.0
06 18.05 В 2 10 км 10/0
[Cc]
+24.4 +11.8 45 +26 +34 жарко 1007.7 989.6
09 18.05 В 4
{11}
10 км 10/3 600 м
[Sc Ac cast Ci fib]
+27.2 +11.0 36 +28 +32 жарко 1007.1 989.2
12 18.05 В 5
{11}
10 км 10/0
[Ci]
+28.8 +11.2 34 +29 +35 жарко 1006.2 988.4
15 18.05 В 4
{10}
10 км 4/0
[Ci fib]
+27.0 +11.7 39 +28 +29 жарко 1005.9 988.0 +29.1
18 18.05 В 2 10 км 8/0
[Ac cast Ci fib]
+22.6 +11.9 51 +25 +25 комфорт 1006.3 988.1
21 18.05 В 1 10 км 8/0
[Ac cast Ci fib]
+19.4 +12.5 64 +22 +22 комфорт 1006.2 987.8
00 19.05 СВ 1 10 км гроза без осадков 10/8 600 м
[Cb cap As op]
+18.5 +12.7 69 +20 +20 тепло 1006.6 988.1
03 19.05 СВ 1 10 км {гроза, ливн. осадки} 9/8 600 м
[Sc Ac trans Ci fib]
+17.4 +12.1 71 +18 +19 тепло 1006.4 987.9 +17.0 0.3
06 19.05 Ю 2 10 км {гроза, ливн. осадки} 10/10 600 м
[Sc]
+20.9 +14.8 68 +25 +25 комфорт 1007.9 989.4
09 19.05 С 1 10 км {гроза} 10/5 600 м
[Cu Sc Ci]
+23.6 +14.6 57 +26 +35 жарко 1009.0 990.8
12 19.05 ЮВ 1 10 км {гроза} 10/10 600 м
[Cb cap]
+24.3 +14.8 55 +27 +27 жарко 1009.3 991.2
15 19.05 Ю 2 10 км гроза без осадков {ливн. осадки} 10/8 600 м
[Cb cap As op]
+20.3 +17.7 85 +24 +24 комфорт 1011.3 992.9 +26.1 1
18 19.05 СВ 1 10 км {гроза, ливн. осадки} 10/0
[Ci]
+18.1 +16.7 92 +19 +19 тепло 1011.5 993.0
21 19.05 С 1 10 км 10/0
[Ac trans Ci]
+17.2 +16.3 94 +18 +18 тепло 1012.1 993.5
00 20.05 СВ 1 10 км 10/0
[Ci]
+15.9 +15.0 94 +17 +17 тепло 1012.9 994.2
03 20.05 штиль 0 500 м туман 10/0
[Ac trans Ci]
+16.0 +15.2 95 +16 +17 тепло 1013.5 994.8 +15.0
06 20.05 СЗ 2 10 км {туман} 9/9 300 м
[Sc]
+20.3 +16.8 80 +24 +25 комфорт 1014.3 995.8
09 20.05 В 2 10 км 10/10 300 м
[Cb cap]
+23.8 +12.6 49 +26 +26 жарко 1015.4 997.2
12 20.05 ЮЗ 6-12
{13}
10 км 9/9 300 м
[Cb cap]
+22.0 +14.5 62 +25 +26 комфорт 1016.5 998.1
15 20.05 Ю 1
{12}
10 км 8/3 600 м
[Sc Ci fib]
+23.2 +14.5 58 +27 +28 душно 1015.4 997.1 +25.1
18 20.05 штиль 0 10 км 4/0
[Ac trans Ci fib]
+17.3 +14.9 86 +17 +17 тепло 1016.5 997.8
21 20.05 С 1 10 км ясно +15.2 +14.0 93 +16 +16 тепло 1017.1 998.3
00 21.05 В 1 10 км ясно +14.3 +13.1 92 +15 +15 тепло 1017.4 998.5
03 21.05 ЮВ 4
{10}
10 км ясно +15.6 +3.7 45 +15 +16 тепло 1017.5 998.7 +13.3
06 21.05 ЮВ 2 10 км ясно +21.0 +9.0 46 +23 +34 комфорт 1017.8 999.2
09 21.05 В 3 10 км ясно +26.0 +9.4 35 +26 +42 жарко 1016.9 998.7
12 21.05 В 4 10 км 5/1 600 м
[Cu hum Ci fib]
+27.4 +9.5 33 +28 +35 жарко 1015.6 997.5
15 21.05 В 3 10 км 10/3 600 м
[Sc diur, vesp Ci]
+25.8 +10.6 38 +27 +28 жарко 1015.2 997.1 +27.7
18 21.05 В 4 10 км 10/0
[Ci]
+21.2 +10.7 51 +23 +23 комфорт 1015.2 996.8
21 21.05 В 5
{10}
10 км 10/0
[Ac As]
+19.6 +9.7 53 +20 +20 тепло 1014.6 996.0
00 22.05 ЮВ 1
{10}
10 км 8/0
[Ci fib]
+14.9 +9.0 68 +15 +15 тепло 1014.5 995.7
03 22.05 ЮВ 3-10
{10}
10 км 10/0
[Ac cast Ci]
+14.9 +8.8 67 +14 +15 по сезону 1014.2 995.4 +14.2
06 22.05 ЮВ 2
{10}
10 км в посл. час ливневой дождь 10/10 600 м
[Sc]
+17.0 +10.2 64 +17 +17 тепло 1014.1 995.4
09 22.05 С 2 10 км слаб. ливневой дождь 10/10 600 м
[Cb cap]
+17.3 +14.8 85 +18 +18 по сезону 1014.5 995.8
12 22.05 В 1 10 км {гроза, ливн. осадки} 10/9 600 м
[Sc Ac As]
+17.8 +14.4 80 +19 +19 по сезону 1014.6 996.0
15 22.05 ЮВ 2 10 км в посл. час гроза 10/8 600 м
[Cb cap Ci fib]
+19.9 +15.0 73 +23 +23 комфорт 1013.9 995.4 +20.3 3
18 22.05 ЮВ 3 10 км {гроза} 4/3 600 м
[Sc Ac trans]
+16.9 +14.7 87 +17 +17 тепло 1013.9 995.2
21 22.05 ЮВ 1 10 км зарница 1/0
[Ac trans]
+13.9 +12.7 92 +14 +14 тепло 1013.9 995.0
00 23.05 Ю 1 10 км ясно +12.5 +11.8 95 +12 +12 по сезону 1013.9 995.0
03 23.05 ЮВ 2 500 м туман 3/0
[Ci fib]
+12.3 +11.8 97 +11 +12 по сезону 1014.0 995.0 +11.8 0.3
06 23.05 ЮВ 2 10 км {туман} 3/0
[Ci fib]
+20.2 +15.0 72 +23 +33 комфорт 1012.4 994.0
09 23.05 З 7-11
{11}
10 км 8/4 600 м
[Cu med, cong Ci fib]
+24.0 +7.8 35 +24 +27 комфорт 1011.0 992.8
12 23.05 З 3
{13}
10 км слаб. ливневой дождь {гроза} 9/6 600 м
[Cb cap Ac trans]
+20.5 +13.6 65 +23 +26 комфорт 1011.2 992.8
15 23.05 З 5
{12}
10 км {ливн. осадки} 6/5 600 м
[Cb cap Ac trans Ci fib]
+22.8 +10.5 46 +25 +25 комфорт 1010.5 992.2 +24.6
18 23.05 СЗ 2
{10}
10 км {ливн. осадки} 9/9 600 м
[Sc]
+19.0 +12.2 65 +21 +21 комфорт 1012.0 993.5

 

Местоположение метеостанции Армавир (Краснодарский край, Россия): широта 44.98 долгота 41.12 высота над уровнем моря 159 м.

В архиве по умолчанию представлена погода в Армавире за последнюю неделю. Архивные данные за месяц целиком и за предыдущие месяцы, начиная с января 2011 года, Вы можете получить, выбрав интересующий диапазон дат из раскрывающегося списка и нажав кнопку "Ввод!".


*Определитесь, кто Вы:
робот инопланетянин человек

Внимание! Время в таблицах - всемирное. Для получения местного времени необходимо прибавить поправку, которая равна 3 ч.

Смотрите также архив погоды в соседних городах и на ближайших метеорологических станциях:

Погода в Лабинске (Краснодарский край, Россия) (45 км)
Погода в Даховской (Адыгея, Россия) (45 км)
Погода в Новоалександровске (Ставропольский край, Россия) (58 км)
Погода в Дондуковской (Адыгея, Россия) (62 км)
Погода в Изобильном (Ставропольский край, Россия) (63 км)
Погода в Кропоткине (Краснодарский край, Россия) (66 км)
Погода в Отрадной (Краснодарский край, Россия) (71 км)
Погода в Ставрополе (Ставропольский край, Россия) (77 км)
Погода в Невинномысске (Ставропольский край, Россия) (78 км)
Погода в Майкопе (Адыгея, Россия) (91 км)

Пояснения к столбцам:

Ветер - указаны скорость ветра в м/с - средняя за 10 мин, порывы в срок и между сроками (в фигурных скобках) и направление, откуда дует ветер: С - северный, СВ - северо-восточный, В - восточный, ЮВ - юго-восточный, Ю - южный, ЮЗ - юго-западный, З - западный, СЗ - северо-западный.
Видимость - горизонтальная дальность видимости в метрах или километрах. При видимости от 1 до 10 км при отсутствии осадков обычно наблюдается дымка, при ухудшении видимости до 1 км и менее - туман. В сухую погоду видимость может ухудшаться дымом, пылью или мглою.
Явления - указаны атмосферные явления, наблюдавшиеся в срок или в последний час перед сроком; фигурными скобками обозначены явления, наблюдавшиеся между сроками (за 1-3 часа до срока); квадратными скобками обозначены град или гололедные отложения с указанием их диаметра в мм.
Облачность - указаны через наклонную черту общая и нижняя облачность в баллах и высота нижней границы облаков в метрах; квадратными скобками обозначены формы облаков: Ci - перистые, Cs - перисто-слоистые, Cc - перисто-кучевые, Ac - высококучевые, As - высокослоистые, Sc - слоисто-кучевые, Ns - слоисто-дождевые, Cu - кучевые, Cb - кучево-дождевые. Подробнее классификацию облаков см. в Атласе облаков (PDF).
T - Температура воздуха - температура, измеренная на высоте 2 м над землей.
Td - Температура точки росы - температура, при понижении до которой содержащийся в воздухе водяной пар достигнет насыщения.
f - Относительная влажность воздуха - влажноcть воздуха, измеренная на высоте 2 м над землей.
Te - Эффективная температура - температура, которую ощущает одетый по сезону человек в тени. Характеристика душности погоды. При расчете учитывается влияние влажности воздуха и скорости ветра на теплоощущения человека.
Tes - Эффективная температура на солнце - температура, которую ощущает человек, с поправкой на солнечный нагрев. Характеристика знойности погоды. Зависит от высоты солнца над горизонтом, облачности и скорости ветра. Ночью, в пасмурную погоду, а также при ветре 12 м/с и более поправка равна нулю.
P - Атмосферное давление - приведенное к уровню моря атмосферное давление.
Po - Атмосферное давление - измеренное на уровне метеостанции атмосферное давление.
Tmin - Минимальная температура - минимум температуры воздуха на высоте 2 м над землей.
Tmax - Максимальная температура - максимум температуры воздуха на высоте 2 м над землей.
R - Количество осадков - Количество выпавших осадков за период времени, мм. При наведении курсора мыши на число - период времени, за который выпало указанное количество осадков.
R24 - Количество осадков - Количество выпавших осадков за 24 часа, мм.
S - Снежный покров - Высота снежного покрова, см. При наведении курсора мыши на число - состояние снежного покрова и степень покрытия местности в баллах.